sat.trackr.live / text

‹ back to catalog

STARLINK-31180

NORAD 58732 · 2024-005E

PAYLOAD ACTIVE UNKNOWN

§ Identity

Operator
Country
US
Launch date
2024-01-07
Launch site
AFETR
Launch vehicle
Mass (kg)
RCS (m²)

Purposes: comms

External: N2YO · Heavens-Above · Gunter

§ Orbital elements

Epoch: 2026-05-25T01:24:29.273760Z

Period
94.27 min
Inclination
43.0038°
Eccentricity
0.0001946
Mean motion
15.27576562 rev/d
Perigee alt
481.7 km
Apogee alt
484.4 km
Semi-major
6,861.2 km
B*
2.5226e-5
RAAN
148.4427°
Arg perigee
278.0557°
Mean anomaly
82.0074°
Rev number
13,211

§ Raw data

STARLINK-311801 58732U 24005E   26145.05867215  .00000432  00000+0  25226-4 0  99972 58732  43.0038 148.4427 0001946 278.0557  82.0074 15.27576562132114

JSON: /api/v1/satellites/58732 · /tle

For live sub-satellite position, see the globe view (requires WebGL).

§ Visibility from observer

Set your observer location to see the next 7 days of passes ≥ 10°. The values pass through the URL so the page stays shareable.

No JS? Fill the form by hand. The geolocation button needs JavaScript.